This demonstration page uses our WeatherBlox Daily Observations layout. Learn more.

Left ArrowRight Arrow

38.89511, -77.03637

Hourly Observations for December 30, 2017

Temp ( °F °C ) Dew Point ( °F °C ) Humidity (%) Winds ( mph kmh ) Pressure ( in mb ) Visibility ( mi km ) Precip ( " mm )
12:30 am 00:30 Cloudy 24 -4.4 7 -13.9 48 48 E 6 9 30.27 1025 10 16 0.00 0.00
12:52 am 00:52 Cloudy 24 -4.4 7 -13.9 48 48 E 6 9 30.26 1025 10 16 0.00 0.00
1:18 am 01:18 Cloudy 24 -4.4 7 -13.9 48 48 Calm 30.27 1025 10 16 0.00 0.00
1:52 am 01:52 Cloudy 24 -4.4 7 -13.9 48 48 SSE 3 6 30.25 1024 10 16 0.00 0.00
1:58 am 01:58 Cloudy 24 -4.4 7 -13.9 48 48 Calm 30.27 1025 10 16 0.00 0.00
2:52 am 02:52 Cloudy with Light Snow 23 -5 15 -9.4 72 72 ESE 5 7 30.23 1024 3 4 0.00 0.03
3:02 am 03:02 Cloudy with Light Snow 23 -5 16 -8.9 74 74 SE 6 9 30.24 1024 3 4 0.00 0.03
3:10 am 03:10 Cloudy with Light Snow 22 -5.6 17 -8.3 82 82 SSE 6 9 30.24 1024 2 2 0.00 0.03
3:27 am 03:27 Mostly Cloudy with Light Snow 22 -5.6 18 -7.8 85 85 SSE 7 11 30.21 1023 1 1 0.00 0.03
3:38 am 03:38 Mostly Cloudy with Light Snow 22 -5.6 19 -7.2 89 89 SSE 7 11 30.21 1023 1 1 0.01 0.25
3:52 am 03:52 Mostly Cloudy with Light Snow 22 -5.6 19 -7.2 89 89 SSE 7 11 30.19 1023 1 1 0.02 0.51
3:55 am 03:55 Cloudy with Light Snow 22 -5.6 19 -7.2 89 89 SSE 6 9 30.21 1023 1 1 0.00 0.03
4:08 am 04:08 Cloudy with Light Snow 22 -5.6 19 -7.2 89 89 S 8 13 30.21 1023 2 2 0.00 0.03
4:16 am 04:16 Cloudy with Light Snow 22 -5.6 19 -7.2 89 89 S 10 17 30.21 1023 2 3 0.01 0.25
4:35 am 04:35 Cloudy with Light Snow 22 -5.6 19 -7.2 89 89 S 9 15 30.21 1023 3 4 0.01 0.25
4:48 am 04:48 Cloudy with Light Snow 21 -6 19 -7 93 93 SSW 6 9 30.18 1022 3 4 0.01 0.25
4:52 am 04:52 Cloudy with Light Snow 22 -5.6 20 -6.7 92 92 SSW 5 7 30.18 1022 3 4 0.01 0.25
4:57 am 04:57 Cloudy with Light Snow 22 -5.6 20 -6.7 92 92 SSW 5 7 30.18 1022 3 5 0.00 0.03
5:22 am 05:22 Cloudy 22 -5.6 19 -7.2 89 89 S 6 9 30.18 1022 7 11 0.00 0.03
5:52 am 05:52 Cloudy 23 -5 19 -7.2 85 85 SSE 9 15 30.16 1021 9 14 0.00 0.03
6:52 am 06:52 Cloudy 23 -5 18 -7.8 81 81 SE 7 11 30.15 1021 7 11 0.00 0.00
7:17 am 07:17 Cloudy 23 -5 18 -7.8 81 81 SE 5 7 30.15 1021 9 14 0.00 0.00
7:52 am 07:52 Cloudy 23 -5 17 -8.3 78 78 SE 6 9 30.14 1021 10 16 0.00 0.00
8:52 am 08:52 Cloudy 24 -4.4 17 -8.3 75 75 Calm 30.13 1020 10 16 0.00 0.00
9:52 am 09:52 Cloudy 24 -4.4 18 -7.8 77 77 SE 5 7 30.10 1019 10 16 0.00 0.00
10:52 am 10:52 Mostly Cloudy 26 -3.3 18 -7.8 71 71 ENE 3 6 30.06 1018 10 16 0.00 0.00
11:52 am 11:52 Mostly Cloudy 27 -2.8 18 -7.8 69 69 ENE 3 6 30.02 1017 10 16 0.00 0.00
12:52 pm 12:52 Mostly Cloudy 28 -2.2 20 -6.7 72 72 SSE 3 6 29.99 1016 10 16 0.00 0.00
1:52 pm 13:52 Cloudy 29 -1.7 21 -6.1 72 72 SSE 5 7 29.96 1015 10 16 0.00 0.00
2:52 pm 14:52 Mostly Cloudy 31 -0.6 21 -6.1 67 67 SSW 5 7 29.96 1015 10 16 0.00 0.00
3:52 pm 15:52 Mostly Cloudy 31 -0.6 22 -5.6 69 69 S 8 13 29.97 1015 10 16 0.00 0.00
4:52 pm 16:52 Cloudy 30 -1.1 22 -5.6 72 72 SSW 7 11 29.98 1015 10 16 0.00 0.00
5:23 pm 17:23 Cloudy with Light Snow 32 0 22 -5.6 66 66 WSW 3 6 30.00 1016 10 16 0.00 0.03
5:52 pm 17:52 Cloudy 33 0.6 20 -6.7 58 58 NW 14 22 30.02 1017 9 14 0.00 0.03
6:52 pm 18:52 Mostly Cloudy 29 -1.7 20 -6.7 69 69 N 14 22 30.08 1019 10 16 0.00 0.03
7:52 pm 19:52 Mostly Cloudy 27 -2.8 14 -10 58 58 NNW 10 17 30.11 1020 10 16 0.00 0.00
8:52 pm 20:52 Partly Cloudy 26 -3.3 12 -11.1 55 55 NNW 9 15 30.13 1020 10 16 0.00 0.00
9:52 pm 21:52 Partly Cloudy 26 -3.3 5 -15 40 40 NNW 21 33 30.17 1022 10 16 0.00 0.00
10:52 pm 22:52 Mostly Cloudy with Light Snow 24 -4.4 8 -13.3 50 50 NW 18 30 30.21 1023 10 16 0.00 0.03
11:52 pm 23:52 Partly Cloudy 23 -5 8 -13.3 53 53 NW 17 28 30.23 1024 10 16 0.00 0.03

Powered by AerisWeather